QPF
0.00 0.00 0.00 0.00 0.00 0.00 0.00 0.00 0.00 0.00 0.00 0.00 0.00 0.01 0.01 0.01 0.02 0.05 0.03 0.04 0.03 0.02 0.02 0.02 0.02 0.03 0.05 0.06 0.08 0.08 0.08 0.10 0.12 0.15 0.15 0.13 0.17 0.24 0.16 0.11 0.09 0.05 0.03 0.02
0.00 0.00 0.00 0.00 0.00 0.00 0.00 0.00 0.00 0.00 0.00 0.00 0.01 0.02 0.04 0.02 0.02 0.05 0.04 0.04 0.03 0.03 0.03 0.02 0.02 0.02 0.03 0.05 0.06 0.09 0.11 0.12 0.12 0.11 0.12 0.10 0.12 0.20 0.14 0.11 0.11 0.08 0.04 0.03
0.00 0.00 0.00 0.00 0.00 0.00 0.00 0.00 0.00 0.00 0.00 0.01 0.01 0.03 0.05 0.03 0.05 0.05 0.04 0.04 0.03 0.03 0.03 0.03 0.03 0.04 0.05 0.06 0.06 0.06 0.08 0.11 0.12 0.09 0.09 0.09 0.11 0.13 0.14 0.12 0.12 0.08 0.05 0.04
0.00 0.00 0.00 0.00 0.00 0.00 0.00 0.00 0.00 0.00 0.00 0.00 0.00 0.02 0.03 0.03 0.05 0.07 0.05 0.04 0.04 0.06 0.05 0.06 0.05 0.04 0.04 0.04 0.06 0.09 0.10 0.09 0.09 0.08 0.08 0.09 0.11 0.10 0.08 0.08 0.09 0.08 0.06 0.06
0.00 0.00 0.00 0.00 0.00 0.00 0.00 0.00 0.00 0.00 0.00 0.00 0.00 0.01 0.05 0.03 0.02 0.03 0.05 0.05 0.05 0.04 0.04 0.05 0.04 0.04 0.03 0.05 0.06 0.06 0.07 0.08 0.07 0.07 0.08 0.10 0.12 0.13 0.11 0.10 0.09 0.09 0.07 0.06
0.00 0.00 0.00 0.00 0.00 0.00 0.00 0.00 0.00 0.00 0.00 0.00 0.00 0.01 0.03 0.01 0.01 0.02 0.04 0.03 0.03 0.03 0.03 0.03 0.05 0.07 0.08 0.08 0.04 0.03 0.04 0.05 0.06 0.09 0.09 0.10 0.11 0.14 0.14 0.13 0.14 0.11 0.07 0.06
0.00 0.00 0.00 0.00 0.00 0.00 0.00 0.00 0.00 0.00 0.00 0.00 0.00 0.01 0.03 0.02 0.02 0.02 0.03 0.03 0.03 0.03 0.02 0.04 0.07 0.12 0.17 0.11 0.04 0.03 0.03 0.05 0.06 0.08 0.10 0.11 0.12 0.12 0.11 0.11 0.11 0.08 0.08 0.09
0.00 0.00 0.00 0.00 0.00 0.00 0.00 0.00 0.00 0.00 0.00 0.00 0.00 0.01 0.04 0.03 0.04 0.05 0.05 0.04 0.02 0.02 0.03 0.03 0.04 0.07 0.09 0.05 0.04 0.03 0.03 0.05 0.06 0.07 0.09 0.10 0.08 0.09 0.09 0.08 0.09 0.08 0.08 0.07
0.00 0.00 0.00 0.00 0.00 0.00 0.00 0.00 0.00 0.00 0.00 0.01 0.00 0.02 0.07 0.06 0.05 0.07 0.06 0.04 0.02 0.02 0.04 0.03 0.01 0.01 0.03 0.05 0.05 0.03 0.02 0.04 0.06 0.07 0.07 0.05 0.04 0.05 0.08 0.08 0.09 0.08 0.09 0.09
0.00 0.00 0.00 0.00 0.00 0.00 0.00 0.00 0.00 0.00 0.00 0.00 0.02 0.05 0.09 0.09 0.07 0.08 0.08 0.06 0.05 0.03 0.03 0.02 0.01 0.01 0.02 0.03 0.05 0.04 0.02 0.02 0.04 0.05 0.05 0.03 0.03 0.05 0.07 0.06 0.07 0.06 0.06 0.08
0.00 0.00 0.00 0.00 0.00 0.00 0.00 0.00 0.00 0.00 0.00 0.00 0.02 0.04 0.06 0.08 0.11 0.13 0.10 0.07 0.08 0.06 0.06 0.03 0.02 0.02 0.01 0.01 0.04 0.06 0.03 0.03 0.04 0.04 0.04 0.04 0.04 0.05 0.07 0.07 0.06 0.07 0.07 0.08
0.00 0.00 0.00 0.00 0.00 0.00 0.00 0.00 0.00 0.00 0.00 0.00 0.01 0.02 0.03 0.06 0.08 0.11 0.11 0.10 0.09 0.07 0.05 0.03 0.04 0.07 0.04 0.01 0.02 0.03 0.02 0.03 0.03 0.04 0.05 0.05 0.05 0.04 0.05 0.06 0.07 0.07 0.06 0.06
0.00 0.00 0.00 0.00 0.00 0.00 0.00 0.00 0.00 0.00 0.00 0.00 0.00 0.02 0.04 0.07 0.08 0.07 0.08 0.12 0.11 0.07 0.05 0.04 0.03 0.06 0.10 0.05 0.02 0.02 0.01 0.02 0.03 0.05 0.05 0.04 0.04 0.05 0.06 0.05 0.06 0.06 0.06 0.07
0.00 0.00 0.00 0.00 0.00 0.00 0.00 0.00 0.00 0.00 0.00 0.00 0.00 0.01 0.03 0.05 0.06 0.06 0.07 0.14 0.16 0.13 0.06 0.04 0.03 0.03 0.05 0.07 0.09 0.06 0.04 0.06 0.06 0.06 0.05 0.06 0.06 0.06 0.05 0.06 0.08 0.08 0.08 0.11
0.00 0.00 0.00 0.00 0.00 0.00 0.00 0.00 0.00 0.00 0.00 0.00 0.01 0.02 0.02 0.03 0.06 0.10 0.13 0.11 0.07 0.06 0.05 0.03 0.02 0.02 0.02 0.04 0.04 0.04 0.07 0.13 0.12 0.10 0.11 0.09 0.07 0.07 0.10 0.11 0.12 0.12 0.11 0.11
0.00 0.00 0.00 0.00 0.00 0.00 0.00 0.00 0.00 0.00 0.00 0.00 0.01 0.01 0.02 0.03 0.07 0.09 0.10 0.12 0.12 0.06 0.06 0.07 0.06 0.04 0.03 0.02 0.03 0.03 0.04 0.06 0.08 0.13 0.20 0.13 0.08 0.08 0.11 0.12 0.11 0.11 0.10 0.10
0.00 0.00 0.00 0.00 0.00 0.00 0.00 0.00 0.00 0.00 0.01 0.02 0.03 0.02 0.02 0.03 0.04 0.04 0.02 0.04 0.08 0.10 0.07 0.07 0.11 0.08 0.05 0.03 0.03 0.03 0.03 0.04 0.06 0.08 0.10 0.15 0.15 0.11 0.08 0.09 0.08 0.07 0.05 0.05
0.00 0.00 0.00 0.00 0.00 0.00 0.00 0.00 0.00 0.00 0.01 0.04 0.06 0.02 0.03 0.04 0.06 0.09 0.06 0.04 0.10 0.13 0.11 0.09 0.09 0.10 0.09 0.05 0.04 0.05 0.05 0.05 0.05 0.05 0.06 0.06 0.07 0.07 0.06 0.05 0.04 0.03 0.02 0.02
0.00 0.00 0.00 0.00 0.00 0.00 0.01 0.01 0.01 0.01 0.04 0.05 0.05 0.05 0.04 0.04 0.04 0.08 0.10 0.06 0.11 0.09 0.08 0.11 0.10 0.09 0.07 0.05 0.05 0.05 0.06 0.07 0.06 0.04 0.04 0.04 0.04 0.03 0.02 0.02 0.02 0.02 0.02 0.03
0.00 0.00 0.00 0.00 0.00 0.00 0.01 0.01 0.02 0.03 0.10 0.17 0.17 0.11 0.07 0.05 0.05 0.06 0.05 0.06 0.07 0.05 0.05 0.10 0.10 0.07 0.06 0.04 0.04 0.05 0.05 0.07 0.06 0.05 0.04 0.04 0.04 0.03 0.02 0.01 0.01 0.02 0.03 0.05
0.00 0.00 0.00 0.00 0.01 0.01 0.01 0.01 0.02 0.06 0.12 0.16 0.13 0.08 0.06 0.05 0.04 0.04 0.03 0.04 0.05 0.05 0.06 0.07 0.08 0.07 0.06 0.04 0.04 0.05 0.05 0.07 0.07 0.05 0.04 0.03 0.04 0.04 0.04 0.02 0.02 0.02 0.02 0.04
0.00 0.00 0.00 0.01 0.01 0.03 0.02 0.02 0.05 0.10 0.14 0.16 0.20 0.19 0.09 0.05 0.06 0.07 0.05 0.04 0.05 0.06 0.08 0.10 0.11 0.07 0.05 0.05 0.07 0.08 0.07 0.07 0.07 0.05 0.03 0.02 0.02 0.02 0.02 0.02 0.01 0.02 0.03 0.03
0.01 0.00 0.01 0.01 0.03 0.03 0.03 0.03 0.07 0.10 0.13 0.14 0.15 0.16 0.09 0.06 0.08 0.07 0.05 0.05 0.06 0.08 0.12 0.13 0.11 0.11 0.10 0.06 0.07 0.07 0.07 0.06 0.05 0.04 0.03 0.02 0.02 0.02 0.03 0.03 0.03 0.02 0.03 0.03
0.02 0.02 0.01 0.03 0.05 0.05 0.04 0.04 0.06 0.05 0.05 0.07 0.09 0.07 0.07 0.05 0.04 0.04 0.04 0.06 0.06 0.07 0.09 0.09 0.08 0.08 0.10 0.06 0.06 0.05 0.05 0.04 0.04 0.04 0.04 0.03 0.03 0.03 0.03 0.03 0.03 0.03 0.03 0.03
0.05 0.05 0.04 0.04 0.04 0.04 0.03 0.03 0.06 0.04 0.03 0.03 0.03 0.03 0.03 0.02 0.02 0.03 0.04 0.05 0.07 0.07 0.07 0.05 0.04 0.04 0.05 0.05 0.05 0.05 0.04 0.03 0.03 0.03 0.03 0.03 0.02 0.02 0.02 0.02 0.02 0.03 0.03 0.03
0.04 0.06 0.07 0.06 0.04 0.05 0.04 0.04 0.04 0.04 0.03 0.02 0.02 0.02 0.01 0.01 0.02 0.02 0.05 0.06 0.06 0.06 0.06 0.05 0.04 0.04 0.03 0.04 0.04 0.05 0.05 0.05 0.04 0.03 0.02 0.01 0.01 0.01 0.01 0.02 0.02 0.02 0.02 0.03
MSLP
1012.91 1013.64 1014.20 1014.56 1014.72 1014.72 1014.58 1014.32 1013.99 1013.59 1013.15 1012.69 1012.24 1011.83 1011.49 1011.27 1011.20 1011.29 1011.53 1011.91 1012.37 1012.88 1013.38 1013.85 1014.25 1014.58 1014.87 1015.13 1015.39 1015.68 1016.00 1016.35 1016.70 1017.04 1017.32 1017.54 1017.68 1017.75 1017.76 1017.75 1017.75 1017.78 1017.86 1017.98
1013.54 1014.02 1014.33 1014.49 1014.54 1014.52 1014.46 1014.38 1014.27 1014.10 1013.86 1013.52 1013.10 1012.62 1012.15 1011.75 1011.49 1011.41 1011.53 1011.85 1012.32 1012.87 1013.43 1013.95 1014.38 1014.71 1014.96 1015.15 1015.34 1015.55 1015.83 1016.17 1016.54 1016.92 1017.25 1017.52 1017.68 1017.74 1017.73 1017.66 1017.60 1017.56 1017.59 1017.69
1013.94 1014.16 1014.23 1014.21 1014.17 1014.19 1014.27 1014.42 1014.58 1014.68 1014.65 1014.44 1014.04 1013.48 1012.84 1012.21 1011.70 1011.41 1011.36 1011.58 1012.01 1012.59 1013.21 1013.80 1014.29 1014.66 1014.91 1015.08 1015.23 1015.42 1015.67 1016.00 1016.40 1016.81 1017.19 1017.49 1017.68 1017.74 1017.69 1017.58 1017.46 1017.37 1017.36 1017.43
1014.11 1014.09 1013.95 1013.80 1013.74 1013.84 1014.12 1014.54 1014.99 1015.37 1015.56 1015.47 1015.08 1014.42 1013.58 1012.69 1011.91 1011.35 1011.09 1011.17 1011.53 1012.11 1012.78 1013.45 1014.02 1014.45 1014.74 1014.94 1015.09 1015.27 1015.52 1015.86 1016.27 1016.72 1017.14 1017.47 1017.67 1017.73 1017.66 1017.52 1017.35 1017.21 1017.15 1017.20
1014.12 1013.89 1013.60 1013.38 1013.36 1013.60 1014.10 1014.80 1015.56 1016.21 1016.60 1016.61 1016.22 1015.44 1014.39 1013.24 1012.16 1011.33 1010.84 1010.75 1011.03 1011.58 1012.28 1013.01 1013.66 1014.16 1014.52 1014.75 1014.93 1015.13 1015.38 1015.74 1016.17 1016.64 1017.08 1017.43 1017.65 1017.71 1017.62 1017.45 1017.25 1017.07 1016.98 1016.99
1014.03 1013.66 1013.29 1013.07 1013.13 1013.53 1014.26 1015.23 1016.25 1017.13 1017.69 1017.79 1017.38 1016.49 1015.26 1013.87 1012.54 1011.45 1010.75 1010.49 1010.66 1011.16 1011.87 1012.63 1013.33 1013.90 1014.31 1014.58 1014.79 1014.99 1015.26 1015.62 1016.06 1016.53 1016.98 1017.35 1017.57 1017.63 1017.55 1017.36 1017.13 1016.93 1016.81 1016.79
1013.93 1013.48 1013.09 1012.92 1013.08 1013.65 1014.58 1015.76 1016.99 1018.04 1018.72 1018.88 1018.45 1017.49 1016.12 1014.56 1013.04 1011.76 1010.89 1010.50 1010.56 1011.00 1011.68 1012.44 1013.16 1013.75 1014.17 1014.46 1014.68 1014.88 1015.14 1015.49 1015.91 1016.38 1016.84 1017.20 1017.43 1017.50 1017.41 1017.22 1016.98 1016.76 1016.62 1016.59
1013.84 1013.39 1013.04 1012.94 1013.22 1013.92 1014.99 1016.30 1017.65 1018.80 1019.54 1019.73 1019.30 1018.30 1016.88 1015.24 1013.63 1012.27 1011.31 1010.82 1010.81 1011.18 1011.80 1012.52 1013.19 1013.75 1014.15 1014.42 1014.60 1014.78 1015.01 1015.33 1015.73 1016.18 1016.62 1016.98 1017.21 1017.29 1017.21 1017.03 1016.80 1016.58 1016.44 1016.39
1013.80 1013.41 1013.13 1013.12 1013.48 1014.26 1015.39 1016.74 1018.10 1019.26 1020.01 1020.20 1019.79 1018.82 1017.44 1015.84 1014.26 1012.92 1011.96 1011.45 1011.39 1011.69 1012.23 1012.86 1013.45 1013.92 1014.24 1014.44 1014.56 1014.68 1014.87 1015.15 1015.52 1015.94 1016.36 1016.72 1016.96 1017.04 1016.99 1016.83 1016.62 1016.42 1016.28 1016.23
1013.77 1013.48 1013.30 1013.38 1013.79 1014.58 1015.68 1016.97 1018.26 1019.34 1020.04 1020.22 1019.85 1018.98 1017.72 1016.27 1014.85 1013.64 1012.77 1012.31 1012.24 1012.48 1012.92 1013.42 1013.88 1014.21 1014.42 1014.51 1014.54 1014.60 1014.73 1014.96 1015.30 1015.70 1016.11 1016.47 1016.72 1016.83 1016.80 1016.68 1016.50 1016.33 1016.21 1016.17
1013.72 1013.56 1013.50 1013.65 1014.08 1014.81 1015.80 1016.95 1018.07 1019.02 1019.63 1019.80 1019.49 1018.76 1017.72 1016.52 1015.34 1014.35 1013.65 1013.29 1013.24 1013.43 1013.75 1014.11 1014.40 1014.57 1014.62 1014.59 1014.54 1014.52 1014.60 1014.81 1015.13 1015.52 1015.94 1016.30 1016.57 1016.72 1016.73 1016.65 1016.51 1016.38 1016.29 1016.26
1013.63 1013.63 1013.69 1013.89 1014.31 1014.95 1015.78 1016.72 1017.64 1018.41 1018.90 1019.05 1018.83 1018.28 1017.50 1016.60 1015.74 1015.02 1014.53 1014.29 1014.27 1014.40 1014.61 1014.80 1014.91 1014.91 1014.81 1014.66 1014.52 1014.46 1014.52 1014.72 1015.04 1015.45 1015.88 1016.28 1016.58 1016.76 1016.82 1016.78 1016.70 1016.60 1016.53 1016.52
1013.52 1013.67 1013.84 1014.10 1014.48 1015.01 1015.66 1016.38 1017.08 1017.66 1018.05 1018.18 1018.05 1017.70 1017.19 1016.61 1016.07 1015.63 1015.35 1015.23 1015.23 1015.31 1015.39 1015.41 1015.34 1015.17 1014.94 1014.69 1014.50 1014.41 1014.47 1014.70 1015.06 1015.50 1015.97 1016.41 1016.75 1016.98 1017.08 1017.10 1017.05 1016.99 1016.95 1016.95
1013.43 1013.72 1014.00 1014.30 1014.65 1015.08 1015.56 1016.07 1016.57 1016.98 1017.26 1017.38 1017.35 1017.18 1016.93 1016.64 1016.39 1016.20 1016.10 1016.07 1016.08 1016.08 1016.02 1015.88 1015.63 1015.32 1014.97 1014.66 1014.43 1014.36 1014.46 1014.73 1015.14 1015.64 1016.16 1016.65 1017.04 1017.32 1017.47 1017.53 1017.53 1017.50 1017.49 1017.50
1013.44 1013.85 1014.21 1014.55 1014.88 1015.22 1015.57 1015.91 1016.23 1016.51 1016.71 1016.83 1016.88 1016.87 1016.83 1016.79 1016.77 1016.77 1016.79 1016.81 1016.78 1016.69 1016.49 1016.18 1015.78 1015.34 1014.91 1014.55 1014.32 1014.27 1014.43 1014.76 1015.24 1015.80 1016.38 1016.91 1017.36 1017.68 1017.89 1018.00 1018.04 1018.05 1018.05 1018.07
1013.63 1014.12 1014.54 1014.90 1015.22 1015.50 1015.75 1015.97 1016.17 1016.35 1016.50 1016.62 1016.74 1016.85 1016.97 1017.09 1017.22 1017.34 1017.42 1017.43 1017.34 1017.13 1016.78 1016.33 1015.80 1015.25 1014.75 1014.36 1014.15 1014.14 1014.34 1014.74 1015.27 1015.89 1016.51 1017.09 1017.59 1017.96 1018.22 1018.38 1018.47 1018.52 1018.55 1018.59
1014.04 1014.56 1015.01 1015.38 1015.69 1015.93 1016.12 1016.27 1016.39 1016.50 1016.62 1016.75 1016.91 1017.10 1017.31 1017.53 1017.74 1017.90 1017.98 1017.94 1017.76 1017.43 1016.95 1016.36 1015.71 1015.08 1014.53 1014.12 1013.91 1013.93 1014.17 1014.60 1015.17 1015.82 1016.48 1017.10 1017.63 1018.05 1018.37 1018.59 1018.74 1018.84 1018.92 1018.98
1014.68 1015.17 1015.61 1015.97 1016.26 1016.47 1016.62 1016.73 1016.81 1016.89 1016.99 1017.12 1017.30 1017.52 1017.77 1018.03 1018.25 1018.40 1018.44 1018.33 1018.06 1017.61 1017.02 1016.32 1015.59 1014.88 1014.29 1013.86 1013.64 1013.65 1013.89 1014.33 1014.90 1015.55 1016.22 1016.86 1017.43 1017.90 1018.28 1018.58 1018.80 1018.97 1019.11 1019.22
1015.48 1015.90 1016.28 1016.60 1016.85 1017.04 1017.17 1017.25 1017.31 1017.36 1017.45 1017.57 1017.74 1017.96 1018.22 1018.46 1018.67 1018.79 1018.77 1018.60 1018.24 1017.72 1017.04 1016.27 1015.47 1014.72 1014.08 1013.62 1013.36 1013.34 1013.55 1013.95 1014.49 1015.11 1015.77 1016.41 1017.01 1017.54 1017.98 1018.36 1018.67 1018.93 1019.15 1019.32
1016.32 1016.64 1016.93 1017.19 1017.39 1017.54 1017.64 1017.70 1017.73 1017.77 1017.83 1017.93 1018.09 1018.29 1018.51 1018.73 1018.91 1018.99 1018.94 1018.72 1018.33 1017.76 1017.05 1016.25 1015.42 1014.64 1013.96 1013.46 1013.15 1013.07 1013.20 1013.53 1014.00 1014.57 1015.20 1015.84 1016.45 1017.03 1017.55 1018.01 1018.43 1018.78 1019.09 1019.34
1017.07 1017.28 1017.47 1017.64 1017.78 1017.88 1017.95 1017.97 1017.98 1017.99 1018.03 1018.10 1018.22 1018.39 1018.58 1018.77 1018.92 1018.99 1018.93 1018.71 1018.32 1017.77 1017.08 1016.29 1015.46 1014.67 1013.97 1013.41 1013.04 1012.87 1012.92 1013.15 1013.53 1014.04 1014.62 1015.24 1015.87 1016.49 1017.08 1017.64 1018.14 1018.60 1019.00 1019.33
1017.64 1017.73 1017.83 1017.91 1017.99 1018.03 1018.05 1018.04 1018.02 1018.00 1017.99 1018.03 1018.11 1018.24 1018.40 1018.57 1018.72 1018.79 1018.76 1018.58 1018.25 1017.75 1017.12 1016.38 1015.59 1014.81 1014.09 1013.49 1013.06 1012.80 1012.74 1012.87 1013.16 1013.59 1014.12 1014.72 1015.36 1016.02 1016.67 1017.31 1017.90 1018.44 1018.91 1019.32
1017.96 1017.96 1017.97 1017.99 1018.00 1018.00 1017.98 1017.94 1017.88 1017.82 1017.77 1017.76 1017.80 1017.89 1018.03 1018.19 1018.34 1018.45 1018.46 1018.36 1018.11 1017.71 1017.17 1016.51 1015.78 1015.02 1014.31 1013.68 1013.17 1012.84 1012.68 1012.71 1012.91 1013.27 1013.75 1014.34 1014.99 1015.68 1016.38 1017.07 1017.72 1018.33 1018.86 1019.32
1018.04 1017.98 1017.94 1017.91 1017.89 1017.85 1017.80 1017.73 1017.64 1017.54 1017.45 1017.40 1017.40 1017.45 1017.56 1017.72 1017.88 1018.03 1018.11 1018.09 1017.94 1017.64 1017.20 1016.63 1015.96 1015.25 1014.54 1013.88 1013.33 1012.93 1012.69 1012.64 1012.77 1013.07 1013.52 1014.09 1014.74 1015.45 1016.19 1016.91 1017.61 1018.24 1018.81 1019.29
1017.94 1017.85 1017.79 1017.75 1017.72 1017.68 1017.62 1017.53 1017.41 1017.29 1017.17 1017.07 1017.03 1017.04 1017.13 1017.27 1017.44 1017.61 1017.74 1017.80 1017.73 1017.53 1017.18 1016.68 1016.08 1015.40 1014.70 1014.03 1013.44 1012.98 1012.69 1012.58 1012.67 1012.93 1013.35 1013.92 1014.58 1015.30 1016.05 1016.79 1017.50 1018.14 1018.71 1019.19
1017.75 1017.68 1017.63 1017.61 1017.59 1017.56 1017.51 1017.42 1017.30 1017.16 1017.01 1016.88 1016.79 1016.77 1016.82 1016.93 1017.10 1017.27 1017.43 1017.52 1017.50 1017.36 1017.06 1016.62 1016.05 1015.40 1014.70 1014.02 1013.40 1012.91 1012.58 1012.44 1012.50 1012.75 1013.17 1013.74 1014.41 1015.14 1015.90 1016.64 1017.34 1017.97 1018.52 1018.99
Thickness
5830 5811 5800 5809 5817 5817 5816 5813 5810 5823 5841 5832 5822 5818 5823 5828 5825 5819 5815 5811 5807 5805 5806 5804 5800 5795 5789 5784 5779 5774 5769 5765 5763 5760 5756 5754 5752 5753 5753 5754 5754 5754 5753 5752
5805 5800 5819 5829 5830 5826 5820 5811 5811 5822 5838 5829 5816 5814 5823 5826 5823 5823 5819 5813 5808 5804 5801 5799 5796 5793 5787 5782 5777 5773 5769 5765 5762 5761 5758 5756 5754 5753 5754 5754 5754 5755 5754 5753
5797 5812 5833 5828 5822 5818 5817 5813 5813 5814 5822 5823 5813 5798 5808 5818 5823 5823 5822 5817 5812 5807 5801 5798 5794 5790 5786 5781 5777 5774 5769 5765 5762 5761 5758 5755 5753 5752 5751 5752 5753 5754 5754 5753
5804 5822 5827 5822 5820 5820 5805 5827 5825 5819 5802 5789 5799 5769 5791 5803 5808 5813 5813 5812 5810 5808 5804 5798 5794 5789 5784 5781 5778 5774 5770 5766 5763 5761 5757 5753 5751 5749 5751 5753 5753 5754 5754 5753
5801 5820 5820 5816 5825 5830 5823 5835 5827 5818 5801 5786 5788 5771 5777 5796 5795 5802 5809 5812 5811 5808 5803 5798 5794 5789 5786 5783 5778 5774 5770 5766 5764 5761 5757 5754 5753 5753 5753 5753 5752 5752 5753 5753
5809 5828 5829 5829 5839 5841 5837 5822 5810 5795 5781 5763 5778 5771 5769 5786 5797 5802 5807 5811 5809 5807 5802 5797 5793 5789 5785 5782 5778 5774 5769 5765 5764 5761 5758 5756 5753 5752 5751 5751 5750 5750 5751 5751
5797 5814 5831 5839 5826 5829 5820 5783 5757 5756 5744 5752 5778 5772 5771 5801 5813 5812 5809 5808 5808 5805 5799 5794 5789 5785 5782 5779 5776 5773 5770 5766 5764 5761 5759 5757 5755 5754 5752 5751 5750 5749 5749 5749
5773 5778 5815 5830 5821 5810 5808 5785 5752 5742 5739 5749 5769 5767 5782 5811 5818 5820 5815 5810 5807 5802 5798 5794 5790 5787 5783 5779 5776 5774 5770 5767 5765 5762 5760 5758 5757 5755 5754 5753 5751 5750 5750 5750
5770 5777 5819 5832 5836 5824 5805 5789 5783 5758 5754 5745 5754 5772 5790 5807 5808 5810 5808 5804 5801 5800 5798 5794 5790 5786 5783 5780 5777 5775 5771 5768 5766 5764 5762 5759 5758 5756 5754 5753 5752 5751 5751 5751
5787 5780 5803 5825 5832 5828 5819 5802 5772 5755 5739 5733 5747 5758 5764 5784 5792 5798 5798 5796 5797 5796 5795 5792 5790 5786 5783 5781 5779 5776 5772 5768 5766 5764 5762 5760 5757 5756 5754 5752 5751 5750 5750 5749
5791 5775 5783 5801 5802 5800 5807 5799 5775 5754 5749 5734 5731 5748 5788 5790 5796 5796 5797 5798 5796 5793 5792 5790 5788 5786 5784 5781 5778 5774 5771 5767 5765 5763 5761 5758 5756 5755 5753 5751 5750 5749 5748 5747
5790 5769 5761 5783 5809 5821 5810 5799 5777 5757 5752 5745 5737 5751 5802 5801 5802 5801 5798 5799 5798 5795 5792 5790 5787 5784 5781 5779 5776 5772 5769 5766 5764 5761 5759 5757 5755 5753 5751 5749 5748 5747 5746 5744
5789 5764 5749 5757 5777 5800 5802 5801 5789 5772 5755 5743 5738 5756 5798 5798 5798 5800 5798 5797 5796 5792 5789 5787 5785 5782 5780 5778 5775 5771 5769 5765 5763 5760 5756 5754 5752 5750 5749 5747 5746 5744 5742 5741
5798 5765 5753 5749 5759 5780 5786 5796 5795 5773 5752 5750 5755 5764 5781 5788 5790 5792 5795 5795 5792 5789 5786 5784 5782 5780 5779 5777 5774 5770 5768 5765 5762 5757 5754 5751 5749 5747 5745 5744 5742 5740 5738 5736
5790 5766 5771 5775 5785 5790 5789 5791 5793 5782 5772 5762 5767 5770 5779 5788 5792 5794 5795 5793 5790 5787 5786 5784 5781 5779 5777 5774 5771 5768 5766 5763 5759 5755 5752 5748 5746 5744 5742 5740 5738 5736 5733 5731
5776 5767 5770 5771 5784 5785 5783 5788 5790 5788 5786 5778 5776 5774 5788 5792 5793 5792 5791 5791 5786 5785 5785 5784 5781 5779 5776 5773 5769 5766 5764 5761 5757 5752 5749 5746 5743 5740 5738 5735 5733 5731 5728 5725
5762 5759 5748 5746 5765 5770 5758 5778 5783 5783 5787 5782 5771 5777 5785 5784 5785 5786 5788 5788 5784 5783 5782 5780 5778 5777 5775 5773 5769 5764 5762 5759 5755 5750 5747 5744 5741 5737 5735 5732 5729 5725 5722 5720
5757 5746 5734 5736 5748 5734 5753 5785 5788 5780 5779 5784 5783 5783 5784 5784 5785 5787 5788 5785 5782 5782 5780 5777 5776 5775 5773 5771 5767 5764 5761 5756 5752 5748 5744 5741 5738 5734 5731 5727 5724 5720 5717 5714
5761 5745 5729 5720 5723 5733 5758 5775 5778 5769 5761 5777 5778 5779 5780 5782 5778 5774 5781 5783 5782 5782 5781 5779 5778 5774 5771 5767 5764 5759 5755 5752 5747 5743 5741 5738 5735 5731 5727 5723 5719 5716 5712 5708
5749 5744 5726 5717 5719 5716 5741 5769 5783 5771 5745 5768 5774 5771 5773 5773 5756 5759 5773 5777 5778 5778 5777 5775 5774 5770 5765 5762 5760 5754 5749 5746 5742 5739 5737 5734 5731 5727 5722 5718 5715 5711 5707 5702
5724 5722 5716 5712 5711 5720 5750 5768 5771 5740 5737 5763 5768 5768 5766 5763 5762 5765 5769 5770 5772 5771 5770 5768 5765 5761 5758 5757 5753 5748 5743 5739 5738 5735 5732 5728 5725 5721 5717 5713 5709 5705 5700 5695
5711 5706 5705 5702 5700 5710 5750 5756 5745 5742 5755 5761 5761 5761 5759 5760 5761 5761 5761 5762 5762 5760 5759 5757 5753 5750 5749 5749 5745 5740 5736 5735 5732 5729 5725 5721 5718 5715 5711 5706 5701 5698 5693 5688
5709 5711 5709 5707 5708 5727 5742 5747 5751 5754 5753 5755 5754 5755 5754 5752 5752 5753 5751 5751 5752 5751 5749 5747 5743 5740 5740 5739 5738 5732 5730 5728 5725 5721 5716 5713 5710 5706 5702 5698 5693 5689 5685 5680
5707 5716 5710 5705 5711 5723 5732 5739 5744 5750 5752 5753 5753 5751 5749 5745 5746 5745 5743 5741 5741 5741 5739 5737 5735 5731 5729 5729 5728 5727 5724 5722 5718 5713 5708 5704 5700 5696 5692 5688 5685 5681 5677 5672
5697 5702 5698 5696 5706 5713 5720 5727 5734 5740 5744 5745 5746 5745 5743 5741 5738 5736 5733 5732 5731 5730 5729 5727 5724 5721 5720 5720 5719 5718 5716 5714 5709 5704 5699 5695 5691 5687 5681 5676 5671 5669 5666 5664
5688 5691 5688 5686 5698 5701 5707 5720 5727 5730 5732 5734 5734 5733 5734 5733 5730 5727 5723 5722 5721 5720 5719 5717 5714 5713 5712 5711 5709 5707 5706 5704 5700 5694 5690 5686 5681 5676 5671 5666 5660 5657 5656 5654